Content
SEND FEEDBACK

Daily
Averages
Monthly
Summary
Germany

TRIER, GERMANY


Home > Europe > Germany
Elevation: 896 feet     Latitude: 49 45N     Longitude: 006 40E

WEATHER
 
SELECT A DAY
Number of Records: 310,768;   Date Range: 7/1/96 - 10/22/14
 
SHARE

PRINT THIS DATA

[ ← Previous Day ]
WEATHER ALMANAC - JANUARY 23, 2013
[ Next Day → ]
[ °C ]   °F
Weather ElementAverageHighLow
Temperature29.2 °F32 °F (1:50 pm)26.6 °F (11:20 pm)
Dewpoint26.2 °F28.4 °F (4:20 am)23 °F (11:20 pm)
Humidity88.2 %100 % (4:20 am)75 % (7:00 pm)
Barometer29.71 in29.82 in (10:00 pm)29.65 in (12:50 am)
Wind Speed5.2 mph8.1 mph (7:20 am)
Weather ElementAverage
Visibility4.3 mi
Wind DirectionNE (43.5 °)

Weather ElementTotal
Precipitation---
Heating Degree Days35.7 (Base 65)
Averaged from 55 records on January 23, 2013
WEATHER CONDITIONS BREAKOUT
WIND DIRECTION BREAKOUT
WEATHER BY HOUR - JANUARY 23, 2013
[ °C ]   °F
Local TimeTemperatureDewpointHumidityBarometerVisibilityWind DirectionWind SpeedGust SpeedPrecipitationEventsConditions
12:50 AM28.4 °F26.6 °F93 %29.65 in6.2 miVariable2.3 mphMostly Cloudy
1:00 AM29.0 °F26.0 °F86 %29.74 in6.0 miEast (80°)2.2 mphOvercast
1:20 AM28.4 °F26.6 °F93 %29.65 in4.3 miVariable2.3 mph
1:50 AM28.4 °F26.6 °F93 %29.65 in3.7 miENE (60°)3.5 mph
2:20 AM28.4 °F26.6 °F93 %29.65 in3.7 miENE (60°)3.5 mph
2:50 AM28.4 °F26.6 °F93 %29.65 in2.2 miVariable3.5 mph
3:20 AM28.4 °F26.6 °F93 %29.65 in1.7 miNE (50°)2.3 mph
3:50 AM28.4 °F26.6 °F93 %29.65 in3.7 miENE (60°)2.3 mphMostly Cloudy
4:00 AM29.0 °F28.0 °F92 %29.75 in4.0 miENE (60°)2.2 mphOvercast
4:20 AM28.4 °F28.4 °F100 %29.65 in1.9 miNE (50°)4.6 mphMostly Cloudy
4:50 AM28.4 °F26.6 °F93 %29.65 in1.9 miNE (50°)5.8 mphMostly Cloudy
5:20 AM28.4 °F26.6 °F93 %29.65 in1.9 miENE (60°)4.6 mphMostly Cloudy
5:50 AM28.4 °F26.6 °F93 %29.65 in1.9 miNE (50°)5.8 mphMostly Cloudy
6:20 AM28.4 °F26.6 °F93 %29.65 in2.2 miNE (50°)5.8 mphMostly Cloudy
6:50 AM28.4 °F26.6 °F93 %29.65 in2.2 miNE (50°)6.9 mphMostly Cloudy
7:00 AM29.0 °F27.0 °F89 %29.74 in2.0 miNE (50°)6.7 mphMist
7:20 AM28.4 °F26.6 °F93 %29.65 in1.1 miNE (50°)8.1 mphMostly Cloudy
7:50 AM28.4 °F26.6 °F93 %29.65 in1.1 miNE (50°)8.1 mphMostly Cloudy
8:20 AM28.4 °F26.6 °F93 %29.68 in1.2 miNE (50°)6.9 mphMostly Cloudy
8:50 AM28.4 °F26.6 °F93 %29.68 in1.4 miNE (50°)6.9 mphMostly Cloudy
9:20 AM28.4 °F26.6 °F93 %29.68 in1.4 miENE (60°)5.8 mphMostly Cloudy
9:50 AM28.4 °F26.6 °F93 %29.68 in1.6 miNE (50°)5.8 mphMostly Cloudy
10:00 AM29.0 °F27.0 °F90 %29.77 in2.0 miNE (50°)6.7 mphMist
10:20 AM30.2 °F28.4 °F93 %29.71 in1.6 miNNE (30°)4.6 mphMostly Cloudy
10:50 AM30.2 °F26.6 °F86 %29.71 in2.8 miNE (40°)5.8 mphMostly Cloudy
11:20 AM30.2 °F26.6 °F86 %29.71 in4.3 miNE (40°)4.6 mphMostly Cloudy
11:50 AM30.2 °F26.6 °F86 %29.71 in4.3 miNE (40°)5.8 mphMostly Cloudy
12:20 PM30.2 °F26.6 °F86 %29.71 in4.3 miNE (40°)4.6 mphMostly Cloudy
12:50 PM30.2 °F26.6 °F86 %29.71 in4.3 miNNE (30°)4.6 mphMostly Cloudy
1:00 PM31.0 °F27.0 °F81 %29.79 in4.0 miNNE (30°)4.5 mphMostly Cloudy
1:20 PM30.2 °F28.4 °F93 %29.71 in6.2 miVariable3.5 mphMostly Cloudy
1:50 PM32.0 °F28.4 °F87 %29.71 in6.2 miVariable2.3 mphMostly Cloudy
2:20 PM32.0 °F28.4 °F87 %29.71 in6.2 miNE (40°)8.1 mphMostly Cloudy
2:50 PM30.2 °F26.6 °F86 %29.71 in6.2 miNE (40°)8.1 mphMostly Cloudy
3:20 PM30.2 °F26.6 °F86 %29.71 in6.2 miNE (40°)6.9 mphMostly Cloudy
3:50 PM30.2 °F26.6 °F86 %29.71 in6.2 miNE (40°)6.9 mphMostly Cloudy
4:00 PM30.0 °F26.0 °F81 %29.79 in7.0 miNE (40°)6.7 mphMostly Cloudy
4:20 PM30.2 °F26.6 °F86 %29.71 in6.2 miNE (40°)5.8 mphMostly Cloudy
4:50 PM30.2 °F26.6 °F86 %29.71 in6.2 miNE (40°)6.9 mphMostly Cloudy
5:20 PM30.2 °F26.6 °F86 %29.71 in6.2 miNE (40°)8.1 mphMostly Cloudy
5:50 PM30.2 °F26.6 °F86 %29.71 in6.2 miNNE (30°)8.1 mphMostly Cloudy
6:20 PM30.2 °F24.8 °F80 %29.71 in6.2 miNE (50°)6.9 mphMostly Cloudy
6:50 PM30.2 °F24.8 °F80 %29.71 in6.2 miENE (70°)5.8 mphMostly Cloudy
7:00 PM29.0 °F24.0 °F75 %29.80 in7.0 miENE (60°)6.7 mphMostly Cloudy
7:20 PM28.4 °F24.8 °F86 %29.71 in6.2 miENE (60°)6.9 mphMostly Cloudy
7:50 PM28.4 °F24.8 °F86 %29.74 in5.0 miENE (60°)8.1 mphMostly Cloudy
8:20 PM28.4 °F24.8 °F86 %29.74 in6.2 miENE (70°)5.8 mphMostly Cloudy
8:50 PM28.4 °F24.8 °F86 %29.74 in6.2 miENE (60°)4.6 mphMostly Cloudy
9:20 PM28.4 °F24.8 °F86 %29.74 in6.2 miVariable3.5 mphMostly Cloudy
9:50 PM28.4 °F24.8 °F86 %29.74 in6.2 miVariable3.5 mphMostly Cloudy
10:00 PM29.0 °F24.0 °F75 %29.82 in5.0 miEast (80°)2.2 mphPartly Cloudy
10:20 PM28.4 °F24.8 °F86 %29.74 in6.2 miVariable3.5 mphMostly Cloudy
10:50 PM28.4 °F24.8 °F86 %29.74 in5.0 miENE (70°)4.6 mphMostly Cloudy
11:20 PM26.6 °F23.0 °F86 %29.74 in5.0 miENE (60°)4.6 mphMostly Cloudy
11:50 PM28.4 °F23.0 °F80 %29.74 in5.0 miENE (60°)2.3 mphMostly Cloudy
Hourly data recorded from ELLX, located miles away from Trier, Germany







STORIES FROM OUR PARTNERS